Location: Stonelick Lake State Park
(39.2170°N, 84.0850°W)
Time: 03:15:56
(UTC-05:00)

Daily predictions for brighter satellites

Satellite Brightness Start Highest point End
(mag) Time Altitude Azimuth Time Altitude Azimuth Time Altitude Azimuth
Cosmos 2278 Rocket 3.7 04:47:13 23° SE 04:49:35 32° ESE 04:54:33 10° NE
CZ-4C R/B 2.8 05:22:46 56° NW 05:24:41 83° WSW 05:32:47 10° SSE
Cosmos 1626 4.0 05:29:06 25° NE 05:30:12 29° ENE 05:33:29 10° SE
USA 234 4.2 05:24:50 10° NNE 05:29:59 29° NNW 05:29:59 29° NNW
Cosmos 2082 Rocket 4.1 05:27:47 10° N 05:32:28 26° ENE 05:37:06 10° ESE
CZ-2C R/B 3.7 05:29:55 10° SSE 05:34:35 84° E 05:34:35 84° E
H-2A R/B 4.2 05:32:44 37° WSW 05:37:29 62° S 06:46:25 10° ESE
Milstar 3 3.9 05:34:43 25° SW 05:37:55 34° S 05:43:51 10° ESE
Cosmos 2181 Rocket 3.8 05:31:48 10° N 05:38:04 81° W 05:44:13 10° S
PAYLOAD A 4.2 05:40:03 10° NNE 05:44:51 65° E 05:49:31 10° S
IDEFIX/ARIANE 42P 2.9 05:39:52 10° NNE 05:45:08 67° ESE 05:50:21 10° S
USA 229 DEB 3.8 05:38:39 10° SSW 05:45:20 76° ESE 05:52:13 10° NE
USA 229 3.8 05:38:45 10° SSW 05:45:26 75° ESE 05:52:19 10° NE
Cosmos 1766 Rocket 3.8 05:45:44 27° N 05:48:06 70° E 05:52:29 10° SSE
Cosmos 2208 Rocket 4.3 05:44:54 20° N 05:48:45 68° ENE 05:54:09 10° SSE
Cosmos 1850 Rocket 3.9 05:47:41 54° SW 05:48:45 69° WNW 05:54:03 10° NNE
COSMOS 2406 3.7 05:50:06 40° SW 05:50:06 40° SW 05:54:28 10° S
GPS 2-04 Rocket1 3.2 05:52:01 52° S 05:52:07 52° S 05:56:15 10° ESE
COSMO-SKYMED 1 2.5 05:51:11 10° SSE 05:55:31 90° ENE 05:57:31 32° NNW
Cosmos 332 Rocket 3.8 05:57:08 56° WNW 05:57:39 59° WSW 06:02:25 10° S
Radarsat Rocket 4.2 05:51:11 10° NNE 05:57:42 73° ESE 06:03:36 10° S
Cosmos 1833 Rocket 3.7 05:53:33 10° N 05:58:56 44° ENE 06:04:18 10° SE
ATLAS CENTAUR R/B 1.4 05:58:35 50° NNW 05:59:37 79° ENE 06:04:00 10° SE
SL-27 R/B 3.4 05:58:33 25° N 06:00:18 47° ENE 06:03:50 10° SE
Centaur D-1A AC-31 3.4 05:58:45 14° SSW 06:01:52 27° SSE 06:10:55 10° E
NOAA 6 3.9 05:57:58 10° N 06:03:09 72° WNW 06:08:18 10° SSW
CZ-2C R/B 2.5 05:58:32 10° NNE 06:03:09 69° ESE 06:07:52 10° S
Cosmos 2327 Rocket 4.5 05:58:06 10° S 06:04:17 82° E 06:10:25 10° N
Tiangong 2 1.7 06:05:33 47° NNE 06:05:33 47° NNE 06:08:13 10° ENE
Meteor 2-8 Rocket 4.3 05:59:49 10° N 06:05:58 78° W 06:12:04 10° S
Cosmos 1174 4.2 06:09:10 24° N 06:11:13 52° NE 06:14:28 10° SE
Okean-O 2.5 06:08:02 10° N 06:12:26 63° WNW 06:16:48 10° SSW
Cosmos 2058 3.7 06:09:09 10° N 06:13:17 52° E 06:17:21 10° SSE
EO 1 Del DPAF 3.1 06:13:01 10° S 06:16:49 80° WSW 06:19:44 17° NNW
DELTA 2 R/B (1) 4.3 06:17:05 28° WSW 06:19:17 39° SSW 06:24:26 10° SE
Landsat 4 3.9 06:16:54 10° S 06:20:34 47° W 06:21:39 36° NW
Cosmos-2242 3.3 06:18:22 10° SSW 06:22:26 41° W 06:26:31 10° N
Cosmos 1570 Rocket 4.1 06:19:14 21° NW 06:22:35 52° WSW 06:27:37 10° S
Meteor 2-19 Rocket 4.3 06:17:40 10° SSW 06:23:40 64° W 06:29:41 10° N
CZ-4 R/B 3.9 06:26:36 10° NE 06:29:59 25° E 06:33:18 10° SSE
Cosmos 2278 Rocket 2.8 06:29:15 14° WSW 06:33:34 34° WNW 06:38:43 10° N
Cosmos 2184 Rocket 4.1 06:27:49 10° SSW 06:33:52 52° W 06:40:03 10° N
Cosmos 2151 3.0 06:30:47 10° N 06:35:06 89° E 06:39:23 10° S
NOSS 3-1 (C) 3.3 06:32:46 10° SSW 06:38:24 90° WNW 06:44:45 10° NNE
Cosmos 1408 Rocket 4.1 06:34:57 12° NNW 06:38:31 35° W 06:42:31 10° SSW
BREEZE-M DEB (TANK) 4.5 06:36:44 21° W 06:39:46 57° NNW 06:54:24 10° ENE
ORS 1 (USA 231) 3.9 06:39:23 37° W 06:40:14 85° NNW 06:42:49 10° E
Cosmos 371 Rocket 4.4 06:41:01 20° WNW 06:42:31 23° W 06:46:21 10° SSW
Ariane Rocket 4.1 06:40:04 10° NNE 06:45:01 48° E 06:49:55 10° S
MSX 3.9 06:43:06 10° N 06:48:40 55° WNW 06:54:14 10° SSW
SMAP 3.6 06:44:03 10° NNE 06:48:40 62° E 06:53:17 10° S
COSMOS 2487 4.4 06:48:02 10° N 06:51:11 29° ENE 06:54:19 10° SE
Cosmos 1500 Rocket 3.5 06:47:35 10° NNW 06:51:59 72° W 06:56:19 10° S
Nadezhda 3 Rocket 4.0 06:47:16 10° N 06:53:37 75° W 06:59:51 10° S
MINOTAUR R/B 4.2 06:52:10 11° NNW 06:54:10 56° ENE 06:56:16 10° SSE
SL-8 R/B 3.7 06:51:12 10° WSW 06:55:58 67° NNW 07:00:46 10° NE
Shenzhou-11 Module 2.5 06:54:25 18° WNW 06:56:23 46° N 06:59:19 10° E
USA 102 3.9 06:54:02 10° S 06:57:42 47° WSW 07:00:13 13° NW
Cosmos 2221 2.5 06:56:40 10° S 07:00:56 87° E 07:05:14 10° N
Cosmos 1726 2.0 06:57:25 10° S 07:01:08 82° W 07:04:52 10° N
Abrixas rocket 2.9 07:00:18 15° WNW 07:02:39 38° SW 07:05:41 10° SSE
Cosmos 1626 3.8 07:03:48 12° WNW 07:05:13 15° W 07:07:21 10° WSW
Cosmos 540 Rocket 4.4 07:01:24 10° N 07:06:23 50° ENE 07:11:19 10° SE
Cosmos 1743 Rocket 4.1 07:02:39 10° NNW 07:06:37 36° W 07:10:35 10° SSW
Cosmos 1908 3.9 07:06:01 10° SW 07:09:35 33° WNW 07:13:10 10° NNW
Gbstr 26 Del rocket 4.1 07:05:28 10° WSW 07:11:27 62° NNW 07:18:46 10° NE
BREEZE M DEB (TANK) 3.5 07:09:39 10° SSW 07:11:53 26° SE 07:13:45 10° E
CZ-4C R/B 4.4 07:08:02 10° WNW 07:12:35 17° WSW 07:17:19 10° SW
Sich 1 4.5 07:09:54 10° N 07:13:59 40° ENE 07:18:03 10° SSE
Cosmos 2082 Rocket 2.6 07:11:24 10° NW 07:16:41 43° WSW 07:21:56 10° S
CSL-04 Debris 4.2 07:11:32 10° NNE 07:17:04 81° WNW 07:22:32 10° SSW
AQUARIUS 4.2 07:14:36 10° N 07:19:03 61° WNW 07:23:28 10° SSW
Cosmos 2369 Rocket 3.7 07:15:44 10° S 07:20:58 43° ESE 07:26:14 10° NE
USA 81 4.2 07:17:12 10° NNW 07:22:22 57° W 07:27:30 10° SSW
IDEFIX/ARIANE 42P 4.0 07:21:07 10° NNW 07:24:07 16° WNW 07:27:09 10° W
Cosmos 1943 Rocket 4.4 07:21:21 10° SSE 07:26:16 31° ESE 07:31:12 10° NE
